[[{"header":{"parameterUnit":"m.s-1","parameterCategory":2,"la1":30.2991,"la2":30.254,"lo1":-89.0895,"lo2":-89.0444,"dy":0.0017,"dx":0.0017,"nx":28,"ny":28,"refTime":"2025-04-05T21:00:00:Z","depth":"0","parameterNumber":2,"parameterNumberName":"U-component_of_CURRENTS"},"data":[0,0,0,0,0,0,0,0,0,0,0,0,0,0,0,0,0,0,0,0,0,0,0,0,0,0,0,0,0,0,0,0,0,0,0,0,0,0,0,0,0,0,0,0,0,0,0,0,0,0,0,0,0,0,0,0,0,0,0.1916,0.1917,0,0.1965,0.1966,0.1966,0.1969,0.1969,0.1968,0.1968,0.1984,0.1985,0.1986,0,0,0,0,0,0,0,0,0,0,0,0,0,0.1841,0.1842,0.1916,0.1917,0.1917,0.1965,0.1966,0.1966,0.1969,0.1969,0.1968,0.1967,0.1984,0.1985,0.1986,0,0,0,0,0,0,0,0,0,0,0,0,0,0.1879,0.1843,0.1916,0.1926,0.1927,0.1965,0.1966,0.1966,0.1969,0.1968,0.1968,0.1967,0.1984,0.1985,0.1986,0.2008,0,0,0.199,0.1991,0,0,0,0,0,0,0,0,0.1877,0.1882,0.1923,0.1925,0.1927,0.1962,0.1946,0.1979,0.1969,0.1952,0.1968,0.1967,0.1975,0.1977,0.1986,0.2008,0.2009,0.199,0.1991,0.1992,0.1992,0,0,0,0,0,0,0,0.1874,0.188,0.1934,0.1924,0.1926,0.1934,0.1938,0.1952,0.1965,0.1953,0.1954,0.1962,0.1975,0.1985,0.1987,0.2009,0.199,0.1991,0.1992,0.1993,0.2057,0.2058,0,0,0,0,0,0,0.1871,0.1877,0.1933,0.1936,0.1901,0.1935,0.194,0.195,0.1965,0.1968,0.1962,0.1962,0.1983,0.1985,0.1987,0.2024,0.1992,0.1993,0.1994,0.2056,0.2057,0.2058,0,0,0,0,0,0,0.1869,0.1876,0.1931,0.1908,0.1916,0.1937,0.1948,0.1951,0.1962,0.1973,0.1974,0.197,0.1983,0.1985,0.2005,0.2024,0.1993,0.1995,0.2055,0.2056,0.2057,0.209,0,0,0,0,0,0,0.1867,0.1875,0.1881,0.1908,0.1917,0.1957,0.1949,0.1953,0.1968,0.1968,0.198,0.1981,0.1982,0.2003,0.2007,0.2025,0.1996,0.2053,0.2055,0.2057,0.2087,0.2092,0.2096,0,0,0,0,0,0.1864,0.1878,0.1881,0.1888,0.1925,0.1958,0.1963,0.1975,0.1969,0.198,0.1987,0.198,0.2016,0.2005,0.2009,0.2028,0.2053,0.2055,0.2057,0.2085,0.2091,0.2096,0,0,0,0,0,0,0.185,0.188,0.1884,0.1906,0.1931,0.1959,0.1973,0.1978,0.1993,0.1992,0.1994,0.1996,0.2022,0.2021,0.2008,0.2052,0.2033,0.2036,0.2054,0.2059,0.2063,0.2072,0.1997,0,0,0,0,0,0.185,0.1867,0.1897,0.1915,0.1928,0.195,0.1964,0.1973,0.1991,0.1997,0.2005,0.2016,0.2035,0.2042,0.2056,0.208,0.2091,0.2094,0.2099,0.2102,0.2112,0.2142,0.2149,0.2065,0.2065,0.2065,0,0,0.1849,0.1869,0.1878,0.1913,0.1933,0.1959,0.1957,0.1983,0.2005,0.1997,0.2024,0.2032,0.2045,0.2073,0.2084,0.2073,0.2134,0.2105,0.2108,0.2116,0.2145,0.2153,0.216,0.2066,0.2066,0.2066,0,0,0.186,0.1876,0.1894,0.1917,0.1951,0.1968,0.1976,0.2006,0.2018,0.2045,0.2048,0.2068,0.2089,0.2107,0.2118,0.2155,0.2156,0.2156,0.2184,0.2213,0.222,0.2226,0.2258,0.2267,0.2156,0.2156,0.2156,0,0.1857,0.1885,0.1905,0.1931,0.1953,0.1972,0.1999,0.2021,0.2051,0.207,0.2056,0.2105,0.2109,0.2156,0.2166,0.2166,0.2181,0.2163,0.2219,0.2225,0.2231,0.2262,0.2271,0.2158,0.2158,0.2158,0.2158,0,0.1883,0.1907,0.1923,0.1961,0.1987,0.2015,0.2048,0.2072,0.2083,0.2105,0.2147,0.2158,0.2187,0.2191,0.219,0.224,0.2238,0.2221,0.2205,0.2242,0.2272,0.2281,0.2161,0.216,0.216,0.2159,0,0,0.1876,0.1929,0.1934,0.1955,0.2005,0.2028,0.2072,0.2119,0.215,0.2173,0.2217,0.2245,0.225,0.2263,0.2265,0.2287,0.2341,0.2273,0.2274,0.2304,0.2411,0.2446,0.2459,0.2333,0.2334,0.2336,0.2417,0,0.1891,0.1935,0.1963,0.2008,0.2036,0.2071,0.2111,0.2154,0.2188,0.2234,0.2259,0.2298,0.2278,0.2294,0.2316,0.234,0.2366,0.2321,0.2372,0.2374,0.24,0.2471,0.2494,0.2572,0.2426,0.2428,0.2429,0,0.1908,0.1937,0.1979,0.2034,0.205,0.2077,0.2144,0.2182,0.2253,0.2282,0.2328,0.235,0.2404,0.2369,0.2435,0.2407,0.2415,0.2423,0.2426,0.2455,0.2426,0.2511,0.2594,0.2604,0.2443,0.2442,0.2441,0,0.1891,0.1949,0.1979,0.1998,0.2063,0.2088,0.2122,0.2191,0.2245,0.2314,0.2367,0.2416,0.2462,0.2477,0.2508,0.2473,0.2579,0.2529,0.2568,0.257,0.2599,0.2602,0.27,0.2572,0.2571,0.2571,0.2571,0,0.1897,0.1922,0.1969,0.1986,0.2027,0.2074,0.213,0.2175,0.2266,0.2333,0.2386,0.2459,0.2492,0.2558,0.2549,0.2614,0.2616,0.2601,0.2605,0.2612,0.2614,0.263,0.26,0.2574,0.2573,0.2573,0.2572,0,0.1876,0.1908,0.1943,0.2001,0.2019,0.2044,0.2136,0.218,0.227,0.2364,0.2396,0.2522,0.261,0.265,0.2699,0.269,0.2687,0.2735,0.2749,0.2754,0.278,0.2749,0.2675,0.2586,0.2791,0.2793,0.2794,0,0.187,0.1884,0.1937,0.1954,0.1977,0.2026,0.2063,0.2163,0.2224,0.2399,0.2447,0.2588,0.2688,0.2812,0.2833,0.287,0.2757,0.2882,0.2814,0.2819,0.2787,0.2611,0.2525,0.2865,0.2866,0.2868,0.2869,0,0.1854,0.1867,0.1892,0.1926,0.1957,0.2004,0.2068,0.2128,0.2249,0.236,0.2508,0.2614,0.2786,0.2878,0.2957,0.2959,0.2808,0.2911,0.2918,0.287,0.2683,0.2587,0.2768,0.2882,0.288,0.288,0.2879,0.2878,0.183,0.1837,0.1864,0.1893,0.1928,0.1967,0.199,0.2087,0.2197,0.2352,0.2487,0.2649,0.2887,0.3031,0.3001,0.3054,0.2897,0.3019,0.2987,0.2811,0.2708,0.2925,0.3037,0.3037,0.3036,0.3036,0.3036,0,0.1794,0.1806,0.1831,0.1859,0.1873,0.1911,0.1981,0.2008,0.2105,0.2305,0.2446,0.2752,0.2944,0.3077,0.3245,0.3179,0.2958,0.311,0.2891,0.2802,0.3045,0.3038,0.3155,0.3155,0.3155,0.3155,0.3155,0.3155,0.1774,0.1775,0.1789,0.1794,0.1812,0.1812,0.1834,0.1896,0.2023,0.2239,0.2432,0.2617,0.3024,0.3373,0.3435,0.3323,0.3045,0.2951,0.2829,0.3086,0.3074,0.3063,0.3053,0.3171,0.3171,0.2512,0.2507,0.2504]},{"header":{"parameterUnit":"m.s-1","parameterCategory":2,"la1":30.2991,"la2":30.254,"lo1":-89.0895,"lo2":-89.0444,"dy":0.0017,"dx":0.0017,"nx":28,"ny":28,"refTime":"2025-04-05T21:00:00:Z","depth":"0","parameterNumber":3,"parameterNumberName":"V-component_of_CURRENTS"},"data":[0,0,0,0,0,0,0,0,0,0,0,0,0,0,0,0,0,0,0,0,0,0,0,0,0,0,0,0,0,0,0,0,0,0,0,0,0,0,0,0,0,0,0,0,0,0,0,0,0,0,0,0,0,0,0,0,0,0,-0.0138,-0.0138,0,-0.0191,-0.0192,-0.0193,-0.0239,-0.0239,-0.024,-0.024,-0.03,-0.0302,-0.0303,0,0,0,0,0,0,0,0,0,0,0,0,0,-0.0118,-0.0118,-0.0138,-0.0138,-0.0139,-0.0191,-0.0192,-0.0193,-0.0239,-0.0239,-0.024,-0.024,-0.03,-0.0301,-0.0303,0,0,0,0,0,0,0,0,0,0,0,0,0,-0.0146,-0.0118,-0.0137,-0.0167,-0.017,-0.0191,-0.0192,-0.0193,-0.0239,-0.0239,-0.024,-0.0241,-0.03,-0.0301,-0.0303,-0.0302,0,0,-0.0309,-0.031,0,0,0,0,0,0,0,0,-0.0144,-0.0147,-0.0162,-0.0165,-0.0168,-0.0208,-0.0207,-0.0229,-0.0239,-0.0214,-0.024,-0.0241,-0.0269,-0.0273,-0.0284,-0.0305,-0.0308,-0.0309,-0.031,-0.0311,-0.0311,0,0,0,0,0,0,0,-0.0142,-0.0145,-0.016,-0.0163,-0.0167,-0.0192,-0.0197,-0.0212,-0.0238,-0.0216,-0.0219,-0.0223,-0.0271,-0.0282,-0.0285,-0.0309,-0.0309,-0.0311,-0.0312,-0.0312,-0.0339,-0.0339,0,0,0,0,0,0,-0.013,-0.0143,-0.0158,-0.0162,-0.0156,-0.0192,-0.0197,-0.0196,-0.0238,-0.0245,-0.0223,-0.0225,-0.0278,-0.0283,-0.0288,-0.0286,-0.0311,-0.0313,-0.0314,-0.034,-0.0339,-0.0339,0,0,0,0,0,0,-0.0129,-0.0131,-0.0156,-0.0153,-0.0158,-0.0191,-0.019,-0.0196,-0.0206,-0.0243,-0.025,-0.0225,-0.0279,-0.0285,-0.0299,-0.0289,-0.0313,-0.0315,-0.034,-0.034,-0.0339,-0.0285,0,0,0,0,0,0,-0.0128,-0.013,-0.0125,-0.0152,-0.0157,-0.016,-0.0189,-0.0197,-0.0207,-0.021,-0.0247,-0.0253,-0.028,-0.0296,-0.0301,-0.0292,-0.0317,-0.0341,-0.034,-0.0339,-0.0288,-0.0283,-0.0279,0,0,0,0,0,-0.0127,-0.0111,-0.0124,-0.0126,-0.0149,-0.0159,-0.0164,-0.0192,-0.0206,-0.0204,-0.0232,-0.0252,-0.0295,-0.0297,-0.0303,-0.0294,-0.0341,-0.034,-0.0339,-0.029,-0.0284,-0.0279,0,0,0,0,0,0,-0.0098,-0.0115,-0.013,-0.012,-0.0137,-0.0166,-0.0165,-0.0185,-0.0205,-0.0208,-0.0247,-0.0255,-0.0264,-0.0285,-0.0286,-0.03,-0.0321,-0.0322,-0.0282,-0.0277,-0.0272,-0.0258,-0.0318,0,0,0,0,0,-0.0089,-0.0083,-0.0107,-0.0099,-0.0104,-0.0134,-0.0142,-0.0158,-0.018,-0.019,-0.0218,-0.0244,-0.0265,-0.0275,-0.0296,-0.03,-0.0328,-0.0299,-0.0295,-0.0291,-0.0284,-0.0322,-0.032,-0.0336,-0.0336,-0.0336,0,0,-0.0076,-0.0085,-0.0082,-0.0093,-0.0109,-0.0105,-0.014,-0.0143,-0.0143,-0.0192,-0.0199,-0.0229,-0.0263,-0.0272,-0.0278,-0.0288,-0.03,-0.029,-0.0286,-0.0281,-0.032,-0.0319,-0.0318,-0.0335,-0.0335,-0.0336,0,0,-0.0042,-0.0053,-0.0037,-0.0046,-0.0061,-0.0079,-0.0076,-0.0102,-0.0116,-0.0127,-0.0163,-0.0186,-0.0216,-0.024,-0.0256,-0.0239,-0.0277,-0.0245,-0.0211,-0.0248,-0.0247,-0.0246,-0.0277,-0.0279,-0.0242,-0.0242,-0.0242,0,-0.0027,-0.001,-0.0034,-0.0022,-0.0022,-0.0062,-0.0044,-0.0063,-0.0092,-0.0099,-0.0121,-0.0171,-0.0201,-0.0215,-0.0212,-0.0228,-0.0255,-0.0227,-0.0242,-0.0242,-0.0243,-0.0274,-0.0278,-0.0239,-0.0239,-0.024,-0.024,0,0.0017,0.0028,0.0039,0.004,0.0037,0.0046,0.002,0.0011,-0.0013,-0.0038,-0.006,-0.0109,-0.0138,-0.0153,-0.0178,-0.0192,-0.0211,-0.0233,-0.0254,-0.0238,-0.0272,-0.0277,-0.0235,-0.0236,-0.0237,-0.0238,0,0,0.0054,0.0068,0.0071,0.0086,0.0072,0.0078,0.0077,0.0067,0.007,0.0026,0.0023,-0.0026,-0.006,-0.0079,-0.0119,-0.0153,-0.0182,-0.0189,-0.0192,-0.0216,-0.026,-0.0277,-0.0284,-0.0209,-0.0209,-0.021,-0.0282,0,0.0094,0.0138,0.0129,0.0167,0.0188,0.0157,0.0161,0.0144,0.0117,0.0102,0.0042,0.0023,-0.003,-0.0042,-0.0085,-0.0156,-0.0192,-0.016,-0.0275,-0.0278,-0.0293,-0.029,-0.0286,-0.035,-0.0287,-0.0288,-0.0288,0,0.0136,0.0162,0.021,0.0236,0.0242,0.0252,0.0256,0.0254,0.0216,0.0194,0.0154,0.0108,0.0054,0.0006,-0.011,-0.0088,-0.0165,-0.0226,-0.0231,-0.0268,-0.0303,-0.0358,-0.0362,-0.0525,-0.0296,-0.0295,-0.0295,0,0.0177,0.0218,0.026,0.0268,0.0288,0.03,0.0301,0.028,0.0294,0.025,0.0256,0.0172,0.014,0.003,-0.0097,-0.0104,-0.0228,-0.0257,-0.0346,-0.0348,-0.0377,-0.0381,-0.0549,-0.0338,-0.0338,-0.0338,-0.0337,0,0.0222,0.0256,0.0284,0.0308,0.0359,0.0347,0.0388,0.0371,0.0368,0.0395,0.0306,0.0312,0.0145,0.0057,-0.0072,-0.022,-0.0213,-0.0337,-0.0368,-0.0358,-0.0359,-0.0528,-0.0636,-0.034,-0.034,-0.0339,-0.0339,0,0.0258,0.0274,0.033,0.0366,0.038,0.0413,0.0457,0.0488,0.0466,0.0499,0.0494,0.0416,0.0298,0.0129,-0.0051,-0.0177,-0.0434,-0.0378,-0.0352,-0.0378,-0.061,-0.0714,-0.093,-0.1036,-0.0487,-0.0488,-0.0489,0,0.0281,0.0313,0.0376,0.0416,0.0434,0.0484,0.0524,0.0531,0.0579,0.0573,0.0605,0.0503,0.046,0.0185,-0.0068,-0.0302,-0.0471,-0.0454,-0.0471,-0.0624,-0.0763,-0.0838,-0.0917,-0.0491,-0.0492,-0.0493,-0.0493,0,0.0325,0.0345,0.0394,0.0478,0.0533,0.0607,0.0668,0.0728,0.0743,0.0778,0.0808,0.0772,0.0498,0.0271,-0.0067,-0.0249,-0.0598,-0.0473,-0.0645,-0.0792,-0.0873,-0.0987,-0.0442,-0.0498,-0.0497,-0.0497,-0.0497,-0.0497,0.0356,0.0401,0.0467,0.055,0.062,0.0722,0.0805,0.0884,0.0977,0.1061,0.0991,0.0997,0.0623,0.0166,-0.0133,-0.0637,-0.0654,-0.076,-0.0876,-0.0939,-0.1042,-0.0503,-0.0583,-0.0583,-0.0583,-0.0583,-0.0583,0,0.04,0.0455,0.0535,0.0643,0.0739,0.0765,0.0904,0.1006,0.1142,0.1224,0.1261,0.1114,0.0631,0.0137,-0.0543,-0.0927,-0.1107,-0.1156,-0.1271,-0.1336,-0.086,-0.0859,-0.0986,-0.0986,-0.0986,-0.0986,-0.0986,-0.0986,0.0425,0.0511,0.056,0.0726,0.0809,0.0961,0.1055,0.1203,0.1316,0.1467,0.1515,0.1505,0.1166,-0.0178,-0.1071,-0.1307,-0.1617,-0.1693,-0.1851,-0.1525,-0.1496,-0.1469,-0.1492,-0.175,-0.1751,-0.2268,-0.2273,-0.2277]}],[{"header":{"parameterUnit":"m.s-1","parameterCategory":2,"la1":30.2991,"la2":30.254,"lo1":-89.0895,"lo2":-89.0444,"dy":0.0017,"dx":0.0017,"nx":28,"ny":28,"refTime":"2025-04-05T21:00:00:Z","depth":"2","parameterNumber":2,"parameterNumberName":"U-component_of_CURRENTS"},"data":[0,0,0,0,0,0,0,0,0,0,0,0,0,0,0,0,0,0,0,0,0,0,0,0,0,0,0,0,0,0,0,0,0,0,0,0,0,0,0,0,0,0,0,0,0,0,0,0,0,0,0,0,0,0,0,0,0,0,0.1831,0.1831,0,0.1879,0.188,0.188,0.1885,0.1885,0.1884,0.1884,0.1901,0.1902,0.1903,0,0,0,0,0,0,0,0,0,0,0,0,0,0.1756,0.1757,0.1831,0.1831,0.1832,0.1879,0.188,0.188,0.1885,0.1885,0.1884,0.1884,0.1901,0.1902,0.1903,0,0,0,0,0,0,0,0,0,0,0,0,0,0.1793,0.1757,0.1831,0.1841,0.1843,0.1879,0.188,0.188,0.1885,0.1885,0.1884,0.1883,0.19,0.1902,0.1903,0.1921,0,0,0.1906,0.1907,0,0,0,0,0,0,0,0,0.1791,0.1796,0.1839,0.1841,0.1842,0.1877,0.186,0.1893,0.1885,0.1867,0.1884,0.1883,0.1891,0.1893,0.1902,0.1922,0.1923,0.1907,0.1907,0.1908,0.1908,0,0,0,0,0,0,0,0.1788,0.1794,0.1848,0.184,0.1842,0.1848,0.1853,0.1866,0.188,0.1869,0.187,0.1878,0.1892,0.1901,0.1902,0.1923,0.1907,0.1908,0.1908,0.1909,0.1971,0.1972,0,0,0,0,0,0,0.1786,0.1791,0.1847,0.185,0.1817,0.185,0.1855,0.1865,0.1881,0.1883,0.1878,0.1878,0.1899,0.1901,0.1903,0.194,0.1908,0.1909,0.191,0.197,0.1971,0.1972,0,0,0,0,0,0,0.1784,0.179,0.1845,0.1823,0.183,0.1852,0.1863,0.1866,0.1878,0.1888,0.189,0.1887,0.1899,0.1901,0.1921,0.194,0.1909,0.1911,0.1969,0.197,0.1972,0.2005,0,0,0,0,0,0,0.1781,0.1789,0.1796,0.1823,0.1832,0.1871,0.1864,0.1868,0.1884,0.1884,0.1897,0.1898,0.1898,0.1919,0.1922,0.1941,0.1912,0.1968,0.197,0.1971,0.2002,0.2007,0.2011,0,0,0,0,0,0.1779,0.1793,0.1796,0.1803,0.184,0.1872,0.1877,0.189,0.1885,0.1896,0.1904,0.1897,0.1932,0.1921,0.1924,0.1944,0.1967,0.1969,0.1971,0.2001,0.2006,0.2011,0,0,0,0,0,0,0.1765,0.1795,0.18,0.1822,0.1847,0.1873,0.1888,0.1894,0.1909,0.1909,0.191,0.1913,0.1938,0.1937,0.1924,0.1967,0.1948,0.1951,0.197,0.1975,0.1979,0.1988,0.1913,0,0,0,0,0,0.1766,0.1783,0.1812,0.1831,0.1844,0.1866,0.188,0.189,0.1908,0.1914,0.1922,0.1932,0.195,0.1958,0.1972,0.1995,0.2005,0.2009,0.2014,0.2017,0.2027,0.2055,0.2063,0.1979,0.1979,0.1979,0,0,0.1765,0.1785,0.1794,0.1829,0.1849,0.1875,0.1873,0.19,0.1921,0.1914,0.1941,0.1949,0.196,0.1988,0.1999,0.1988,0.2048,0.202,0.2023,0.2031,0.2058,0.2066,0.2074,0.198,0.198,0.198,0,0,0.1776,0.1793,0.1811,0.1834,0.1868,0.1885,0.1893,0.1922,0.1935,0.1963,0.1965,0.1985,0.2006,0.2023,0.2033,0.207,0.2071,0.2071,0.21,0.2127,0.2135,0.2141,0.2172,0.218,0.2072,0.2072,0.2072,0,0.1774,0.1802,0.1822,0.1848,0.187,0.189,0.1916,0.1938,0.1968,0.1986,0.1974,0.2022,0.2026,0.207,0.2082,0.2081,0.2096,0.2078,0.2133,0.214,0.2146,0.2176,0.2185,0.2074,0.2074,0.2073,0.2073,0,0.18,0.1824,0.184,0.1878,0.1903,0.1931,0.1963,0.1988,0.2001,0.2021,0.2064,0.2074,0.2103,0.2107,0.2105,0.2155,0.2153,0.2136,0.212,0.2156,0.2185,0.2194,0.2077,0.2076,0.2075,0.2075,0,0,0.1793,0.1846,0.1852,0.1872,0.1921,0.1944,0.1987,0.2034,0.2064,0.2088,0.2132,0.2159,0.2165,0.2177,0.218,0.2201,0.2255,0.2188,0.2189,0.2218,0.2324,0.2353,0.2365,0.2247,0.2248,0.225,0.2329,0,0.1808,0.1852,0.188,0.1924,0.1951,0.1987,0.2025,0.2068,0.2101,0.2147,0.2172,0.221,0.2192,0.2209,0.2231,0.2254,0.2279,0.2235,0.2284,0.2286,0.2307,0.2377,0.2194,0.2253,0.2338,0.234,0.2341,0,0.1826,0.1854,0.1895,0.1949,0.1965,0.1992,0.2058,0.2095,0.2165,0.2195,0.224,0.2262,0.2316,0.2282,0.2347,0.232,0.2328,0.2336,0.2339,0.2362,0.2333,0.2229,0.2266,0.2356,0.2355,0.2354,0.2353,0,0.1809,0.1866,0.1896,0.1915,0.1978,0.2004,0.2038,0.2106,0.2158,0.2227,0.2279,0.2327,0.2374,0.2388,0.2419,0.2385,0.2487,0.2438,0.2473,0.2475,0.2328,0.2315,0.248,0.248,0.248,0.248,0.2479,0,0.1816,0.184,0.1887,0.1904,0.1945,0.1991,0.2046,0.2091,0.218,0.2246,0.2299,0.237,0.2403,0.2467,0.2459,0.252,0.2524,0.2505,0.2508,0.2336,0.2324,0.2412,0.2403,0.2483,0.2482,0.2481,0.2481,0,0.1795,0.1827,0.1862,0.1919,0.1937,0.1963,0.2053,0.2096,0.2185,0.2277,0.2309,0.2432,0.2517,0.2557,0.2604,0.2594,0.2623,0.2634,0.2444,0.2424,0.2576,0.2568,0.268,0.2682,0.2684,0.2685,0.2687,0,0.1789,0.1803,0.1856,0.1873,0.1897,0.1947,0.1983,0.2081,0.214,0.2311,0.2357,0.2494,0.2586,0.2703,0.269,0.2715,0.2703,0.2558,0.2463,0.2611,0.2602,0.2591,0.2581,0.2272,0.227,0.2268,0.2266,0,0.1773,0.1787,0.1812,0.1846,0.1878,0.1923,0.1987,0.2045,0.2163,0.2267,0.2408,0.2506,0.264,0.2616,0.2677,0.2645,0.254,0.2525,0.2728,0.2269,0.2238,0.2225,0.2226,0.2249,0.2251,0.2252,0.2253,0.2254,0.1751,0.1758,0.1784,0.1814,0.1849,0.1885,0.1908,0.1989,0.209,0.22,0.2345,0.2413,0.2483,0.2497,0.2444,0.2386,0.2544,0.2409,0.2409,0.2412,0.237,0.2346,0.2369,0.2371,0.2373,0.2375,0.2377,0,0.171,0.1727,0.1752,0.1779,0.1785,0.1832,0.1898,0.1891,0.1961,0.208,0.2179,0.2076,0.2131,0.2169,0.2086,0.2126,0.2027,0.2021,0.1864,0.1887,0.1906,0.183,0.169,0.1687,0.1684,0.1682,0,0,0.1688,0.1686,0.1699,0.1699,0.1722,0.1706,0.1726,0.1726,0.1775,0.1792,0.182,0.2005,0.2135,0.1866,0.187,0.1764,0.1785,0.1692,0.2258,0.2098,0.2111,0.2169,0.2086,0,0,0,0,0]},{"header":{"parameterUnit":"m.s-1","parameterCategory":2,"la1":30.2991,"la2":30.254,"lo1":-89.0895,"lo2":-89.0444,"dy":0.0017,"dx":0.0017,"nx":28,"ny":28,"refTime":"2025-04-05T21:00:00:Z","depth":"2","parameterNumber":3,"parameterNumberName":"V-component_of_CURRENTS"},"data":[0,0,0,0,0,0,0,0,0,0,0,0,0,0,0,0,0,0,0,0,0,0,0,0,0,0,0,0,0,0,0,0,0,0,0,0,0,0,0,0,0,0,0,0,0,0,0,0,0,0,0,0,0,0,0,0,0,0,-0.0062,-0.0063,0,-0.0114,-0.0115,-0.0115,-0.0161,-0.0161,-0.0162,-0.0162,-0.022,-0.0221,-0.0222,0,0,0,0,0,0,0,0,0,0,0,0,0,-0.0042,-0.0042,-0.0062,-0.0063,-0.0063,-0.0114,-0.0115,-0.0116,-0.0161,-0.0161,-0.0162,-0.0162,-0.022,-0.0221,-0.0222,0,0,0,0,0,0,0,0,0,0,0,0,0,-0.0069,-0.0042,-0.0062,-0.0091,-0.0094,-0.0114,-0.0115,-0.0116,-0.0161,-0.0161,-0.0162,-0.0163,-0.0219,-0.0221,-0.0223,-0.022,0,0,-0.0228,-0.0229,0,0,0,0,0,0,0,0,-0.0067,-0.007,-0.0086,-0.0089,-0.0093,-0.0131,-0.0129,-0.0151,-0.0161,-0.0137,-0.0162,-0.0163,-0.0189,-0.0194,-0.0204,-0.0223,-0.0226,-0.0228,-0.0229,-0.023,-0.023,0,0,0,0,0,0,0,-0.0065,-0.0068,-0.0084,-0.0087,-0.0091,-0.0115,-0.0119,-0.0134,-0.016,-0.0139,-0.0142,-0.0146,-0.0192,-0.0202,-0.0205,-0.0226,-0.0228,-0.0229,-0.023,-0.0231,-0.0256,-0.0256,0,0,0,0,0,0,-0.0054,-0.0066,-0.0082,-0.0085,-0.008,-0.0115,-0.012,-0.0119,-0.016,-0.0166,-0.0145,-0.0148,-0.0199,-0.0203,-0.0207,-0.0207,-0.023,-0.0231,-0.0232,-0.0257,-0.0256,-0.0256,0,0,0,0,0,0,-0.0053,-0.0055,-0.008,-0.0076,-0.0081,-0.0114,-0.0113,-0.0119,-0.0129,-0.0164,-0.0171,-0.0148,-0.0199,-0.0205,-0.0219,-0.0209,-0.0232,-0.0234,-0.0257,-0.0257,-0.0256,-0.0206,0,0,0,0,0,0,-0.0052,-0.0054,-0.005,-0.0075,-0.0081,-0.0084,-0.0112,-0.012,-0.013,-0.0134,-0.0169,-0.0175,-0.02,-0.0216,-0.022,-0.0212,-0.0235,-0.0258,-0.0257,-0.0256,-0.0208,-0.0204,-0.02,0,0,0,0,0,-0.0051,-0.0036,-0.0049,-0.0052,-0.0074,-0.0083,-0.0088,-0.0115,-0.0129,-0.0128,-0.0155,-0.0174,-0.0215,-0.0217,-0.0222,-0.0214,-0.0258,-0.0257,-0.0256,-0.021,-0.0204,-0.02,0,0,0,0,0,0,-0.0024,-0.004,-0.0055,-0.0046,-0.0062,-0.0091,-0.009,-0.0109,-0.0129,-0.0132,-0.0169,-0.0177,-0.0186,-0.0205,-0.0207,-0.022,-0.024,-0.024,-0.0202,-0.0198,-0.0194,-0.018,-0.0236,0,0,0,0,0,-0.0016,-0.0011,-0.0033,-0.0027,-0.0031,-0.0061,-0.0068,-0.0084,-0.0105,-0.0115,-0.0142,-0.0167,-0.0186,-0.0196,-0.0216,-0.022,-0.0247,-0.0219,-0.0215,-0.0211,-0.0204,-0.0241,-0.024,-0.0253,-0.0253,-0.0253,0,0,-0.0004,-0.0012,-0.001,-0.0021,-0.0036,-0.0033,-0.0067,-0.007,-0.007,-0.0117,-0.0124,-0.0153,-0.0184,-0.0193,-0.0199,-0.0208,-0.0221,-0.021,-0.0207,-0.0201,-0.024,-0.0239,-0.0238,-0.0253,-0.0253,-0.0253,0,0,0.0028,0.0016,0.0032,0.0023,0.0009,-0.0008,-0.0006,-0.0031,-0.0045,-0.0056,-0.009,-0.0113,-0.014,-0.0163,-0.0178,-0.0162,-0.0199,-0.0168,-0.0136,-0.0172,-0.0171,-0.0171,-0.0202,-0.0205,-0.0165,-0.0165,-0.0165,0,0.0042,0.0058,0.0035,0.0047,0.0047,0.0008,0.0025,0.0007,-0.0021,-0.0029,-0.005,-0.0098,-0.0126,-0.0139,-0.0137,-0.0152,-0.0178,-0.0151,-0.0167,-0.0167,-0.0168,-0.0199,-0.0203,-0.0163,-0.0163,-0.0163,-0.0163,0,0.0084,0.0095,0.0105,0.0107,0.0103,0.0112,0.0087,0.0078,0.0054,0.003,0.0008,-0.0038,-0.0066,-0.0081,-0.0105,-0.0118,-0.0137,-0.0158,-0.0178,-0.0163,-0.0198,-0.0202,-0.0159,-0.016,-0.0161,-0.0161,0,0,0.0118,0.0133,0.0135,0.015,0.0137,0.0143,0.0143,0.0133,0.0136,0.0092,0.0089,0.0042,0.0009,-0.001,-0.0048,-0.0082,-0.0112,-0.0117,-0.012,-0.0144,-0.019,-0.0207,-0.0215,-0.0138,-0.0139,-0.0139,-0.0212,0,0.0156,0.02,0.0192,0.0229,0.025,0.022,0.0225,0.0208,0.0182,0.0167,0.0108,0.009,0.0038,0.0026,-0.0017,-0.0086,-0.0122,-0.009,-0.0203,-0.0206,-0.0221,-0.022,-0.0191,-0.0253,-0.0217,-0.0217,-0.0218,0,0.0197,0.0224,0.027,0.0297,0.0303,0.0313,0.0317,0.0315,0.0279,0.0257,0.0218,0.0172,0.0119,0.0072,-0.0043,-0.0021,-0.0097,-0.0157,-0.0162,-0.0198,-0.0232,-0.0263,-0.0264,-0.0227,-0.0226,-0.0225,-0.0225,0,0.0236,0.0277,0.0319,0.0328,0.0348,0.0359,0.0361,0.034,0.0355,0.0311,0.0317,0.0234,0.0203,0.0094,-0.0031,-0.0038,-0.0161,-0.0188,-0.0277,-0.0279,-0.0285,-0.0287,-0.0269,-0.0269,-0.0269,-0.0269,-0.0268,0,0.028,0.0314,0.0342,0.0366,0.0416,0.0405,0.0445,0.0429,0.0426,0.0453,0.0366,0.0371,0.0207,0.012,-0.0008,-0.0154,-0.0147,-0.0269,-0.0299,-0.0267,-0.0266,-0.0267,-0.0266,-0.0271,-0.0271,-0.027,-0.027,0,0.0315,0.0331,0.0386,0.0422,0.0436,0.0468,0.0512,0.0544,0.0522,0.0555,0.0549,0.0472,0.0354,0.0188,0.001,-0.0112,-0.0257,-0.0311,-0.026,-0.0283,-0.0357,-0.0352,-0.0418,-0.0419,-0.042,-0.0421,-0.0422,0,0.0337,0.0368,0.0432,0.0471,0.0489,0.0538,0.0578,0.0586,0.0633,0.0626,0.0658,0.0556,0.0511,0.0239,-0.0003,-0.0233,-0.0265,-0.0362,-0.0373,-0.035,-0.0373,-0.0366,-0.036,-0.0364,-0.0364,-0.0364,-0.0364,0,0.0381,0.0399,0.0449,0.0531,0.0585,0.0659,0.072,0.0779,0.0794,0.0827,0.0853,0.0815,0.055,0.0327,-0.0004,-0.0165,-0.0326,-0.0373,-0.0366,-0.0327,-0.0304,-0.0325,-0.032,-0.0366,-0.0365,-0.0365,-0.0365,-0.0365,0.041,0.0455,0.052,0.0602,0.0671,0.0773,0.0854,0.0929,0.1019,0.1085,0.1019,0.0976,0.0689,0.0289,-0.0013,-0.0337,-0.0325,-0.0426,-0.0424,-0.0422,-0.0399,-0.0379,-0.045,-0.045,-0.045,-0.0451,-0.0451,0,0.0456,0.0508,0.0587,0.0693,0.079,0.0814,0.0951,0.1044,0.1171,0.1207,0.123,0.0985,0.0701,0.0364,-0.0104,-0.0385,-0.0408,-0.048,-0.0438,-0.0434,-0.0432,-0.0408,-0.0463,-0.0464,-0.0464,-0.0465,0,0,0.048,0.0566,0.0615,0.0778,0.0858,0.1008,0.11,0.1227,0.1301,0.137,0.1345,0.125,0.0827,0.0497,0.0097,-0.0179,-0.0241,-0.024,-0.0199,-0.0099,-0.0093,-0.0372,-0.0329,0,0,0,0,0]}],[{"header":{"parameterUnit":"m.s-1","parameterCategory":2,"la1":30.2991,"la2":30.254,"lo1":-89.0895,"lo2":-89.0444,"dy":0.0017,"dx":0.0017,"nx":28,"ny":28,"refTime":"2025-04-05T21:00:00:Z","depth":"4","parameterNumber":2,"parameterNumberName":"U-component_of_CURRENTS"},"data":[0,0,0,0,0,0,0,0,0,0,0,0,0,0,0,0,0,0,0,0,0,0,0,0,0,0,0,0,0,0,0,0,0,0,0,0,0,0,0,0,0,0,0,0,0,0,0,0,0,0,0,0,0,0,0,0,0,0,0.1214,0.1215,0,0.1285,0.1286,0.1287,0.133,0.133,0.133,0.1331,0.1394,0.1396,0.1397,0,0,0,0,0,0,0,0,0,0,0,0,0,0.1114,0.1116,0.1214,0.1215,0.1216,0.1285,0.1286,0.1287,0.133,0.133,0.133,0.1331,0.1394,0.1395,0.1397,0,0,0,0,0,0,0,0,0,0,0,0,0,0.1167,0.1116,0.1214,0.1247,0.1251,0.1285,0.1286,0.1287,0.133,0.133,0.1331,0.1331,0.1393,0.1395,0.1397,0.14,0,0,0.1404,0.1405,0,0,0,0,0,0,0,0,0.1164,0.1171,0.1241,0.1245,0.1249,0.13,0.1274,0.1325,0.1329,0.1298,0.1331,0.1331,0.1363,0.1367,0.1378,0.1403,0.1406,0.1404,0.1405,0.1406,0.1407,0,0,0,0,0,0,0,0.116,0.1168,0.1241,0.1242,0.1247,0.1258,0.1266,0.1284,0.1326,0.1301,0.1305,0.1314,0.1365,0.1376,0.138,0.1407,0.1404,0.1406,0.1407,0.1408,0.1502,0.1503,0,0,0,0,0,0,0.1154,0.1165,0.1239,0.1243,0.1208,0.1259,0.1268,0.1282,0.1326,0.1333,0.1314,0.1316,0.1372,0.1377,0.1382,0.1451,0.1406,0.1408,0.1409,0.15,0.1502,0.1503,0,0,0,0,0,0,0.1152,0.116,0.1236,0.1206,0.1217,0.1261,0.1276,0.1283,0.1319,0.1336,0.1343,0.1345,0.1372,0.1379,0.1421,0.1451,0.1409,0.1411,0.1499,0.1501,0.1503,0.1548,0,0,0,0,0,0,0.1149,0.1159,0.1179,0.1206,0.1218,0.1272,0.1276,0.1284,0.1323,0.1328,0.1364,0.1369,0.1373,0.1418,0.1423,0.1453,0.1412,0.1497,0.15,0.1502,0.1545,0.1551,0.1556,0,0,0,0,0,0.1145,0.1166,0.1179,0.1189,0.124,0.1274,0.1281,0.1312,0.1325,0.1345,0.1371,0.1369,0.1437,0.1421,0.1427,0.1458,0.1496,0.1499,0.1502,0.1542,0.155,0.1556,0,0,0,0,0,0,0.1135,0.1174,0.1188,0.1222,0.1253,0.1282,0.1309,0.1326,0.1363,0.1375,0.1386,0.1393,0.1441,0.1443,0.1425,0.1491,0.1466,0.147,0.1495,0.1502,0.1508,0.1512,0.1414,0,0,0,0,0,0.114,0.117,0.1202,0.1233,0.1251,0.1284,0.1306,0.1328,0.1358,0.1377,0.1401,0.1427,0.1453,0.1473,0.1493,0.153,0.1534,0.1554,0.156,0.1564,0.1572,0.1598,0.1607,0.1513,0.1513,0.1513,0,0,0.1145,0.1172,0.1189,0.1234,0.1262,0.1293,0.13,0.1343,0.1374,0.1377,0.1433,0.1451,0.1468,0.151,0.1532,0.1519,0.1595,0.1568,0.1572,0.1577,0.1602,0.1611,0.1619,0.1515,0.1514,0.1514,0,0,0.1161,0.1195,0.1221,0.125,0.1298,0.1318,0.1335,0.1378,0.1407,0.1454,0.1466,0.1503,0.1543,0.1562,0.1575,0.1625,0.1624,0.1635,0.1671,0.1696,0.1704,0.1711,0.1734,0.1743,0.1638,0.1639,0.1639,0,0.1167,0.1204,0.1235,0.1266,0.1296,0.1331,0.1364,0.1397,0.1449,0.1477,0.148,0.1553,0.1567,0.1617,0.1637,0.1639,0.1653,0.1642,0.1704,0.1711,0.1717,0.1739,0.1748,0.1641,0.1641,0.1641,0.164,0,0.1194,0.1233,0.1254,0.1305,0.1339,0.1377,0.142,0.1462,0.1499,0.1528,0.1593,0.1616,0.1659,0.167,0.1672,0.1729,0.1724,0.1706,0.1684,0.1729,0.1749,0.1758,0.1645,0.1644,0.1643,0.1642,0,0,0.1182,0.1257,0.1268,0.1299,0.1366,0.1393,0.1453,0.1511,0.1555,0.1606,0.1662,0.1709,0.1728,0.1743,0.1754,0.1778,0.1835,0.1768,0.1769,0.1789,0.1898,0.1801,0.18,0.1831,0.1833,0.1834,0.1896,0,0.1197,0.1254,0.1293,0.1355,0.1388,0.1443,0.1493,0.1552,0.1603,0.1664,0.1704,0.176,0.1754,0.1784,0.181,0.1833,0.1859,0.182,0.1854,0.1855,0.1761,0.1807,0.1839,0.1902,0.1904,0.1906,0.1907,0,0.1207,0.1247,0.1305,0.1383,0.1405,0.1448,0.1536,0.1586,0.1673,0.1716,0.1778,0.1812,0.1877,0.1854,0.1921,0.19,0.1908,0.1914,0.1916,0.1815,0.1773,0.1847,0.1922,0.1921,0.1919,0.1918,0.1918,0,0.1173,0.1255,0.1302,0.133,0.142,0.1465,0.1518,0.1604,0.1662,0.1755,0.1812,0.1876,0.1932,0.1952,0.1984,0.196,0.2044,0.2006,0.1925,0.1918,0.1967,0.1959,0.2044,0.2044,0.2044,0.2044,0.2044,0,0.1161,0.1204,0.1294,0.132,0.1384,0.1454,0.1533,0.1593,0.1696,0.1759,0.1839,0.1897,0.1962,0.2017,0.2015,0.2005,0.2072,0.1942,0.193,0.1985,0.1978,0.1973,0.1964,0.2046,0.2046,0.2045,0.2045,0,0.1115,0.1176,0.1234,0.1334,0.137,0.1416,0.1543,0.1592,0.1701,0.1788,0.1828,0.1946,0.2008,0.2061,0.2104,0.2045,0.2041,0.2018,0.2096,0.2085,0.1889,0.1882,0.1922,0.1919,0.1916,0.1914,0.1913,0,0.1094,0.1121,0.1229,0.1264,0.1315,0.1399,0.1453,0.1577,0.1631,0.1796,0.1826,0.1948,0.2004,0.1998,0.205,0.205,0.2021,0.2006,0.1922,0.1894,0.1878,0.1875,0.1871,0.1909,0.1908,0.1907,0.1907,0,0.1051,0.1098,0.1143,0.1214,0.1277,0.1343,0.1431,0.1469,0.1601,0.1723,0.1782,0.1824,0.1899,0.1928,0.1958,0.1945,0.2004,0.1979,0.1983,0.1903,0.1878,0.1865,0.1864,0.1898,0.1899,0.19,0.1901,0,0.1017,0.1033,0.1096,0.1149,0.1222,0.1258,0.1319,0.1386,0.1462,0.1636,0.1649,0.177,0.1877,0.1876,0.1896,0.189,0.1846,0.1765,0.1779,0.1789,0.1716,0.1663,0.1615,0,0,0,0,0,0.0974,0.098,0.1025,0.1074,0.1141,0.1185,0.129,0.1353,0.1485,0.1485,0.1565,0.162,0.1668,0.1735,0.1699,0.1835,0.1852,0.1785,0.1765,0.1851,0.1861,0.1787,0,0,0,0,0,0,0.0943,0.0978,0.0993,0.0999,0.1018,0.1082,0.1143,0.1232,0.1244,0.1381,0.1418,0.1521,0.1593,0.1668,0.1667,0.1686,0.1639,0.1864,0.186,0.1846,0.1855,0.1862,0.179,0,0,0,0,0]},{"header":{"parameterUnit":"m.s-1","parameterCategory":2,"la1":30.2991,"la2":30.254,"lo1":-89.0895,"lo2":-89.0444,"dy":0.0017,"dx":0.0017,"nx":28,"ny":28,"refTime":"2025-04-05T21:00:00:Z","depth":"4","parameterNumber":3,"parameterNumberName":"V-component_of_CURRENTS"},"data":[0,0,0,0,0,0,0,0,0,0,0,0,0,0,0,0,0,0,0,0,0,0,0,0,0,0,0,0,0,0,0,0,0,0,0,0,0,0,0,0,0,0,0,0,0,0,0,0,0,0,0,0,0,0,0,0,0,0,0.0123,0.0122,0,0.0084,0.0083,0.0083,0.0052,0.0052,0.0052,0.0051,0.0009,0.0008,0.0007,0,0,0,0,0,0,0,0,0,0,0,0,0,0.0147,0.0147,0.0123,0.0122,0.0122,0.0084,0.0083,0.0082,0.0052,0.0052,0.0052,0.0051,0.001,0.0008,0.0007,0,0,0,0,0,0,0,0,0,0,0,0,0,0.0125,0.0147,0.0123,0.0103,0.0101,0.0084,0.0083,0.0082,0.0052,0.0052,0.0051,0.0051,0.001,0.0009,0.0007,0.0006,0,0,0.0003,0.0002,0,0,0,0,0,0,0,0,0.0126,0.0124,0.0106,0.0104,0.0102,0.0073,0.0076,0.0057,0.0052,0.007,0.0051,0.0051,0.0031,0.0028,0.002,0.0004,0.0002,0.0003,0.0002,0.0001,0.0001,0,0,0,0,0,0,0,0.0128,0.0125,0.0107,0.0106,0.0103,0.0087,0.0084,0.0072,0.0052,0.0068,0.0066,0.0063,0.003,0.0022,0.0019,0.0001,0.0003,0.0002,0.0001,0.0,-0.0027,-0.0027,0,0,0,0,0,0,0.0136,0.0127,0.0108,0.0105,0.0114,0.0087,0.0084,0.0082,0.0052,0.0048,0.0063,0.0062,0.0024,0.0021,0.0017,0.0013,0.0002,0.0,-0.0001,-0.0027,-0.0027,-0.0027,0,0,0,0,0,0,0.0136,0.0134,0.0109,0.0116,0.0111,0.0088,0.0086,0.0081,0.0073,0.0049,0.0044,0.006,0.0024,0.0019,0.0008,0.0011,-0.0,-0.0002,-0.0028,-0.0027,-0.0027,0.0004,0,0,0,0,0,0,0.0137,0.0135,0.0136,0.0116,0.0111,0.0103,0.0086,0.0081,0.0072,0.0069,0.0044,0.004,0.0023,0.001,0.0007,0.0009,-0.0003,-0.0028,-0.0028,-0.0027,0.0002,0.0005,0.0007,0,0,0,0,0,0.0138,0.0144,0.0137,0.0134,0.0114,0.0103,0.0099,0.0081,0.0072,0.0071,0.0053,0.0041,0.0009,0.0009,0.0005,0.0007,-0.0028,-0.0028,-0.0027,0.0001,0.0004,0.0007,0,0,0,0,0,0,0.0154,0.0141,0.0132,0.0134,0.0121,0.0099,0.0097,0.0084,0.0069,0.0068,0.0043,0.0037,0.0028,0.0014,0.0015,-0.0001,-0.0012,-0.0013,0.0011,0.0014,0.0016,0.0028,-0.0004,0,0,0,0,0,0.0159,0.0161,0.0144,0.0144,0.014,0.0119,0.0112,0.0101,0.0085,0.0078,0.0058,0.004,0.0025,0.0017,0.0002,-0.0004,-0.0026,-0.0007,-0.0005,-0.0003,0.0004,-0.0031,-0.0032,-0.0027,-0.0027,-0.0027,0,0,0.0165,0.0159,0.0159,0.0148,0.0137,0.0138,0.0114,0.0109,0.0108,0.0076,0.0069,0.0048,0.0025,0.0015,0.001,0.0005,-0.0016,-0.0003,-0.0001,0.0005,-0.0031,-0.0032,-0.0032,-0.0027,-0.0027,-0.0027,0,0,0.0183,0.0173,0.0183,0.0176,0.0165,0.0152,0.0153,0.0133,0.0122,0.0112,0.0089,0.007,0.0048,0.003,0.0019,0.0025,-0.0003,0.0019,0.004,0.0006,0.0005,0.0004,-0.0024,-0.0028,0.002,0.0021,0.0021,0,0.0191,0.0201,0.0183,0.0191,0.0191,0.0163,0.0174,0.0159,0.0136,0.0131,0.0115,0.0077,0.0055,0.0043,0.0042,0.003,0.0007,0.0033,0.0009,0.0008,0.0006,-0.0023,-0.0028,0.0022,0.0022,0.0022,0.0022,0,0.0216,0.0224,0.0229,0.0231,0.0227,0.0232,0.0213,0.0205,0.0187,0.0169,0.015,0.0113,0.0092,0.0078,0.0061,0.0044,0.003,0.0015,0.0004,0.0008,-0.0024,-0.0029,0.0024,0.0024,0.0023,0.0023,0,0,0.0235,0.0247,0.0249,0.0262,0.0251,0.0255,0.0252,0.0244,0.0247,0.021,0.0207,0.0166,0.0141,0.0127,0.0097,0.0065,0.0031,0.004,0.0037,0.0014,-0.0042,-0.0043,-0.0049,0.001,0.001,0.0009,-0.006,0,0.0261,0.0292,0.0287,0.0315,0.033,0.0309,0.0312,0.0298,0.0278,0.0266,0.0218,0.0203,0.0162,0.0152,0.0112,0.0055,0.0019,0.0052,-0.0044,-0.0047,-0.0046,-0.0054,0.0007,-0.0064,-0.0065,-0.0066,-0.0067,0,0.0287,0.0307,0.0343,0.0366,0.0371,0.038,0.0384,0.0382,0.0352,0.0335,0.0302,0.0266,0.0218,0.0181,0.0078,0.01,0.0035,-0.0017,-0.0021,-0.0034,-0.0057,-0.007,-0.0077,-0.0076,-0.0075,-0.0074,-0.0074,0,0.0314,0.0346,0.038,0.0387,0.0404,0.0416,0.0419,0.0403,0.0414,0.0379,0.0382,0.031,0.0284,0.0188,0.0082,0.0079,-0.0035,-0.0053,-0.0117,-0.0118,-0.011,-0.0109,-0.0128,-0.0128,-0.0127,-0.0127,-0.0127,0,0.0342,0.0371,0.0399,0.0417,0.046,0.0453,0.0489,0.0475,0.0473,0.0491,0.0422,0.0418,0.0284,0.0206,0.0098,-0.0024,-0.0027,-0.0113,-0.0137,-0.0096,-0.0092,-0.0114,-0.0112,-0.013,-0.0129,-0.0129,-0.0128,0,0.0365,0.0381,0.0427,0.0461,0.0475,0.0503,0.0546,0.0571,0.0554,0.0575,0.057,0.0499,0.0389,0.0252,0.0097,0.0009,-0.0114,-0.0158,-0.0098,-0.0117,-0.018,-0.0175,-0.0234,-0.0235,-0.0235,-0.0236,-0.0236,0,0.0378,0.0403,0.0463,0.0497,0.0516,0.0562,0.0597,0.0606,0.0638,0.0626,0.0641,0.0552,0.0483,0.0272,0.0112,-0.0098,-0.0129,-0.0191,-0.0193,-0.0174,-0.0191,-0.0185,-0.018,-0.0237,-0.0237,-0.0237,-0.0237,0,0.0405,0.0426,0.0467,0.054,0.0589,0.0652,0.0701,0.0735,0.0743,0.0736,0.0707,0.0593,0.0468,0.0286,0.012,-0.0031,-0.0151,-0.0197,-0.0197,-0.02,-0.0178,-0.0193,-0.0187,-0.0239,-0.0239,-0.0239,-0.0239,0,0.0425,0.046,0.0516,0.0581,0.065,0.0719,0.0744,0.0781,0.0808,0.0791,0.0778,0.0632,0.0544,0.032,0.0169,0.0017,-0.0025,-0.0071,-0.0079,-0.0079,-0.0019,0.0033,0.0018,0,0,0,0,0,0.0442,0.0489,0.0553,0.0631,0.0701,0.0745,0.0807,0.0826,0.084,0.0832,0.0808,0.0688,0.046,0.0363,0.0212,0.0146,-0.0059,-0.0037,-0.0117,-0.0249,-0.0247,-0.0204,0,0,0,0,0,0,0.0456,0.052,0.0558,0.0661,0.0722,0.0806,0.0851,0.086,0.0856,0.084,0.0725,0.0654,0.0435,0.055,0.0212,0.0164,0.0093,-0.0148,-0.0151,-0.025,-0.0248,-0.0247,-0.0202,0,0,0,0,0]}]]